Precipitable_Water
0.61 0.49 0.39 0.42 0.48 0.47 0.47 0.44 0.39 0.41 0.46 0.43 0.39 0.40 0.44 0.52 0.52 0.51 0.57 0.62 0.71 0.81 0.94 0.96 0.95 1.06 1.24 1.35 1.40 1.47 1.50 1.58 1.54 1.48 1.40 1.36 1.30 1.37 1.41 1.44 1.44 1.42 1.40 1.38
0.51 0.41 0.49 0.50 0.48 0.46 0.45 0.39 0.38 0.42 0.43 0.44 0.41 0.36 0.43 0.47 0.49 0.50 0.54 0.61 0.68 0.80 0.88 0.91 0.90 0.93 1.09 1.24 1.32 1.41 1.47 1.55 1.53 1.53 1.50 1.45 1.41 1.42 1.42 1.44 1.40 1.41 1.40 1.39
0.44 0.48 0.52 0.46 0.41 0.38 0.40 0.36 0.36 0.35 0.43 0.48 0.40 0.30 0.35 0.44 0.47 0.52 0.56 0.65 0.74 0.80 0.84 0.87 0.87 0.85 0.90 1.04 1.12 1.17 1.26 1.40 1.43 1.44 1.43 1.37 1.33 1.26 1.20 1.20 1.20 1.24 1.28 1.27
0.47 0.55 0.47 0.43 0.39 0.40 0.32 0.42 0.41 0.39 0.36 0.28 0.41 0.22 0.31 0.36 0.39 0.48 0.54 0.61 0.72 0.80 0.86 0.86 0.84 0.81 0.83 0.84 0.94 0.94 1.00 1.08 1.16 1.23 1.26 1.20 1.12 1.03 1.08 1.09 1.08 1.05 1.07 1.06
0.41 0.46 0.44 0.40 0.42 0.44 0.36 0.45 0.42 0.41 0.37 0.35 0.33 0.28 0.28 0.36 0.34 0.42 0.50 0.60 0.68 0.81 0.84 0.82 0.82 0.81 0.84 0.86 0.86 0.88 0.90 0.93 0.96 0.98 0.96 0.91 0.84 0.81 0.78 0.74 0.73 0.75 0.82 0.85
0.49 0.60 0.52 0.44 0.48 0.44 0.44 0.40 0.39 0.37 0.34 0.22 0.27 0.28 0.24 0.28 0.30 0.36 0.47 0.56 0.62 0.77 0.84 0.85 0.86 0.84 0.82 0.85 0.86 0.86 0.86 0.86 0.87 0.83 0.77 0.73 0.69 0.68 0.66 0.66 0.65 0.67 0.71 0.73
0.45 0.46 0.53 0.54 0.41 0.45 0.41 0.34 0.23 0.21 0.22 0.17 0.28 0.24 0.22 0.29 0.32 0.34 0.40 0.49 0.59 0.78 0.86 0.84 0.81 0.81 0.82 0.83 0.85 0.87 0.88 0.85 0.86 0.83 0.79 0.77 0.75 0.73 0.70 0.69 0.67 0.66 0.67 0.68
0.34 0.29 0.46 0.51 0.47 0.43 0.38 0.32 0.21 0.14 0.15 0.17 0.25 0.17 0.18 0.25 0.32 0.37 0.42 0.45 0.48 0.55 0.69 0.74 0.86 0.83 0.83 0.82 0.83 0.81 0.81 0.80 0.81 0.80 0.80 0.83 0.84 0.81 0.78 0.76 0.72 0.69 0.69 0.69
0.35 0.35 0.53 0.55 0.54 0.51 0.42 0.34 0.38 0.26 0.24 0.18 0.20 0.23 0.23 0.24 0.28 0.33 0.36 0.40 0.44 0.48 0.52 0.59 0.73 0.78 0.75 0.77 0.80 0.79 0.80 0.81 0.83 0.83 0.82 0.81 0.81 0.78 0.74 0.73 0.72 0.69 0.68 0.67
0.43 0.33 0.48 0.53 0.56 0.54 0.45 0.45 0.30 0.31 0.18 0.15 0.18 0.20 0.18 0.21 0.23 0.27 0.30 0.33 0.35 0.41 0.46 0.50 0.57 0.65 0.74 0.76 0.76 0.80 0.81 0.79 0.80 0.82 0.82 0.80 0.77 0.75 0.73 0.72 0.70 0.70 0.68 0.67
0.46 0.41 0.40 0.50 0.42 0.41 0.42 0.36 0.35 0.34 0.30 0.21 0.17 0.19 0.27 0.26 0.27 0.29 0.31 0.34 0.37 0.41 0.44 0.47 0.53 0.58 0.64 0.71 0.75 0.79 0.79 0.77 0.77 0.77 0.79 0.77 0.75 0.74 0.73 0.71 0.70 0.69 0.68 0.66
0.46 0.41 0.33 0.37 0.50 0.54 0.49 0.40 0.39 0.29 0.27 0.29 0.27 0.24 0.35 0.33 0.34 0.35 0.36 0.40 0.44 0.45 0.46 0.48 0.51 0.55 0.57 0.62 0.68 0.70 0.73 0.75 0.76 0.75 0.74 0.71 0.72 0.71 0.70 0.68 0.67 0.68 0.66 0.66
0.48 0.40 0.30 0.33 0.41 0.48 0.41 0.43 0.42 0.40 0.37 0.28 0.23 0.24 0.36 0.35 0.35 0.38 0.39 0.42 0.46 0.49 0.49 0.50 0.52 0.53 0.57 0.60 0.63 0.66 0.68 0.68 0.68 0.69 0.69 0.68 0.67 0.67 0.66 0.66 0.67 0.67 0.66 0.65
0.54 0.43 0.34 0.27 0.31 0.36 0.34 0.38 0.42 0.40 0.29 0.29 0.27 0.28 0.32 0.34 0.35 0.38 0.38 0.40 0.44 0.49 0.51 0.54 0.55 0.57 0.59 0.63 0.65 0.66 0.65 0.65 0.66 0.66 0.65 0.65 0.66 0.68 0.68 0.68 0.67 0.67 0.66 0.64
0.51 0.37 0.40 0.39 0.38 0.39 0.37 0.35 0.36 0.34 0.35 0.27 0.28 0.27 0.31 0.33 0.33 0.35 0.39 0.41 0.43 0.46 0.51 0.53 0.56 0.57 0.59 0.62 0.62 0.62 0.63 0.65 0.66 0.65 0.66 0.66 0.69 0.70 0.70 0.69 0.69 0.68 0.67 0.65
0.50 0.38 0.40 0.37 0.42 0.40 0.36 0.38 0.37 0.36 0.34 0.33 0.35 0.30 0.42 0.41 0.42 0.41 0.42 0.44 0.44 0.46 0.52 0.57 0.59 0.61 0.61 0.62 0.60 0.62 0.65 0.66 0.68 0.67 0.67 0.69 0.68 0.69 0.70 0.69 0.69 0.68 0.67 0.66
0.43 0.38 0.34 0.29 0.38 0.38 0.30 0.34 0.35 0.35 0.37 0.35 0.28 0.33 0.39 0.36 0.36 0.38 0.41 0.43 0.47 0.49 0.53 0.56 0.61 0.63 0.65 0.64 0.64 0.61 0.63 0.66 0.66 0.67 0.69 0.69 0.69 0.69 0.70 0.70 0.69 0.67 0.67 0.68
0.40 0.39 0.37 0.29 0.31 0.20 0.30 0.36 0.36 0.32 0.32 0.35 0.34 0.32 0.33 0.36 0.38 0.40 0.43 0.45 0.50 0.51 0.51 0.55 0.61 0.67 0.69 0.69 0.67 0.67 0.66 0.65 0.66 0.67 0.67 0.70 0.71 0.69 0.70 0.71 0.69 0.67 0.67 0.68
0.48 0.41 0.33 0.27 0.25 0.28 0.28 0.30 0.30 0.28 0.25 0.30 0.29 0.31 0.33 0.36 0.37 0.34 0.41 0.43 0.47 0.52 0.53 0.57 0.63 0.70 0.71 0.69 0.69 0.68 0.66 0.68 0.69 0.68 0.68 0.69 0.71 0.71 0.71 0.69 0.69 0.66 0.65 0.65
0.43 0.45 0.35 0.31 0.23 0.19 0.26 0.35 0.39 0.37 0.22 0.37 0.39 0.40 0.40 0.41 0.29 0.35 0.44 0.43 0.43 0.46 0.51 0.56 0.65 0.69 0.69 0.68 0.69 0.67 0.67 0.69 0.69 0.70 0.71 0.71 0.72 0.72 0.72 0.72 0.71 0.70 0.66 0.64
0.34 0.35 0.29 0.29 0.26 0.28 0.34 0.38 0.42 0.23 0.25 0.41 0.44 0.46 0.44 0.37 0.39 0.44 0.47 0.45 0.46 0.45 0.47 0.55 0.62 0.62 0.64 0.66 0.67 0.68 0.69 0.68 0.71 0.72 0.72 0.72 0.73 0.74 0.73 0.71 0.71 0.71 0.67 0.65
0.32 0.30 0.29 0.31 0.26 0.21 0.39 0.38 0.29 0.35 0.43 0.44 0.47 0.49 0.45 0.44 0.44 0.44 0.47 0.46 0.46 0.46 0.47 0.52 0.55 0.58 0.62 0.66 0.68 0.66 0.63 0.66 0.71 0.72 0.72 0.73 0.74 0.73 0.72 0.70 0.69 0.70 0.67 0.63
0.29 0.35 0.32 0.32 0.29 0.38 0.40 0.40 0.43 0.45 0.44 0.46 0.51 0.54 0.50 0.47 0.45 0.46 0.47 0.48 0.49 0.49 0.50 0.53 0.56 0.59 0.63 0.66 0.65 0.62 0.68 0.72 0.72 0.72 0.71 0.71 0.72 0.72 0.70 0.67 0.66 0.67 0.66 0.62
0.39 0.47 0.38 0.36 0.36 0.38 0.42 0.44 0.47 0.48 0.48 0.50 0.53 0.54 0.54 0.52 0.54 0.49 0.51 0.52 0.52 0.54 0.55 0.58 0.59 0.59 0.60 0.68 0.71 0.71 0.74 0.76 0.73 0.69 0.69 0.69 0.68 0.69 0.70 0.69 0.68 0.66 0.64 0.61
0.34 0.41 0.41 0.39 0.40 0.41 0.42 0.44 0.46 0.47 0.49 0.49 0.54 0.56 0.57 0.60 0.61 0.63 0.62 0.59 0.59 0.60 0.61 0.61 0.60 0.61 0.67 0.73 0.74 0.76 0.73 0.74 0.73 0.71 0.69 0.68 0.67 0.67 0.67 0.69 0.68 0.66 0.66 0.50
0.25 0.28 0.33 0.35 0.46 0.42 0.41 0.45 0.48 0.46 0.48 0.51 0.55 0.56 0.60 0.62 0.60 0.62 0.62 0.67 0.69 0.68 0.69 0.71 0.75 0.74 0.76 0.76 0.79 0.77 0.77 0.76 0.75 0.73 0.70 0.69 0.68 0.68 0.67 0.64 0.63 0.68 0.56 0.42
Wind_Speed
15 18 22 26 25 19 22 21 23 22 22 24 29 29 29 27 27 28 33 39 42 39 35 32 31 32 32 33 33 32 31 30 28 28 28 27 26 26 25 25 25 25 25 25
11 16 20 20 22 21 22 21 20 18 19 22 23 28 29 28 27 29 31 37 44 42 38 34 32 33 32 32 33 33 32 31 30 30 29 28 27 27 27 26 27 27 27 27
11 14 18 21 21 21 20 23 20 17 18 22 19 24 28 29 28 29 31 32 39 44 41 36 33 33 34 32 31 31 31 30 29 29 29 28 28 28 27 28 28 28 28 29
12 11 19 21 20 21 20 18 18 17 19 17 20 17 20 26 27 28 30 31 34 41 41 38 34 32 33 34 33 32 31 32 32 31 30 30 30 30 29 29 29 30 30 30
13 16 20 20 18 17 15 17 20 17 17 16 19 18 20 19 24 26 29 32 33 40 41 39 37 34 33 33 33 34 34 33 33 32 32 31 31 31 31 31 31 31 31 31
11 15 19 18 16 16 15 15 15 16 17 19 22 20 19 18 19 23 26 30 31 35 42 40 39 37 36 34 34 34 34 33 33 33 33 32 32 32 32 32 33 33 33 33
11 14 15 17 18 17 18 19 14 16 17 17 12 19 22 16 17 18 19 24 28 32 36 40 38 38 37 36 34 34 35 34 34 34 33 32 32 32 32 32 32 32 32 32
13 15 18 18 18 15 20 21 15 15 14 14 14 16 12 13 17 18 19 20 19 26 30 33 39 38 39 37 36 34 33 32 31 30 30 31 32 33 33 32 32 32 32 32
12 10 13 15 16 15 16 18 15 13 11 13 13 14 14 14 13 13 16 19 22 24 25 27 30 36 36 37 36 34 33 32 31 31 31 31 31 31 32 32 32 32 32 32
12 11 15 14 14 15 15 16 15 16 14 15 13 13 10 9 8 9 11 15 18 22 24 26 26 29 32 35 35 34 34 33 32 32 31 31 31 31 31 32 32 32 32 32
15 12 12 16 18 15 15 15 16 15 16 14 12 11 11 11 11 10 9 10 14 16 20 24 25 27 27 30 32 32 33 32 32 32 31 31 30 31 31 31 30 30 31 31
20 15 14 17 15 18 20 19 20 16 15 16 16 17 11 11 13 12 11 8 9 13 15 17 22 23 24 26 28 30 31 32 32 32 31 31 30 30 30 30 30 31 31 30
22 18 15 16 17 18 20 23 22 22 17 19 17 13 12 16 18 15 11 11 11 11 13 15 18 21 23 24 25 27 28 28 29 30 30 30 30 30 30 30 31 31 31 31
21 20 20 18 14 15 20 23 25 23 20 21 24 23 18 17 17 17 18 19 19 17 16 16 17 19 21 23 25 26 26 27 27 27 28 29 30 30 30 30 31 31 30 30
19 19 21 20 16 16 17 20 23 26 26 25 22 26 25 28 28 28 25 22 22 23 21 20 20 20 21 22 23 24 25 26 27 27 28 28 29 29 29 30 30 30 30 30
20 15 16 13 20 19 20 22 22 25 27 28 28 29 25 25 26 27 25 25 26 24 24 23 23 22 22 23 24 24 24 25 25 26 27 27 28 28 29 28 27 28 27 27
21 19 16 15 14 13 18 23 25 23 23 24 26 25 22 23 24 26 25 25 24 25 27 26 26 26 24 22 22 23 23 23 24 25 26 26 27 27 28 27 27 26 25 25
19 19 17 15 14 17 14 13 18 21 24 24 25 24 23 23 23 23 23 24 24 22 23 25 26 26 25 23 22 22 22 23 24 25 25 25 25 24 24 25 25 25 25 24
20 16 14 15 17 15 17 13 13 14 16 19 22 21 21 19 19 21 22 23 24 23 21 21 22 24 23 23 22 22 22 22 22 23 24 24 24 24 24 23 23 22 22 21
20 20 18 14 15 15 10 10 11 10 13 11 12 13 14 13 15 15 14 18 22 24 21 20 20 20 20 20 20 21 20 22 22 22 23 23 23 23 23 22 22 21 20 20
13 14 19 18 17 16 15 13 13 14 11 12 13 13 13 14 15 15 16 16 17 20 20 20 20 21 20 19 19 20 19 20 21 21 21 20 21 21 21 21 21 20 20 19
13 12 13 17 15 17 12 12 16 12 12 12 13 13 13 13 13 13 13 13 14 16 17 19 20 20 20 19 19 19 19 19 19 18 18 19 19 19 19 19 19 19 19 19
13 14 12 14 13 11 12 11 13 11 11 11 11 11 11 11 10 10 10 10 11 12 14 16 18 18 18 18 17 17 17 17 17 16 17 17 17 17 17 18 18 18 19 19
12 14 15 14 14 15 12 14 13 12 12 9 9 9 9 9 9 9 9 9 10 11 12 13 15 16 17 17 16 16 16 15 15 15 16 16 16 16 16 16 16 17 17 18
14 13 14 16 16 14 14 14 14 13 13 13 11 10 9 9 8 7 7 8 9 10 11 13 14 15 16 16 16 15 15 16 16 16 16 16 16 15 16 16 17 17 17 18
20 20 17 14 12 14 12 10 11 13 13 12 11 10 9 8 8 8 8 9 9 10 11 12 14 15 16 17 17 17 16 16 15 15 16 16 16 16 16 16 16 18 18 19
Wind_Direction
185 191 187 189 194 198 192 197 201 208 210 216 224 230 230 234 237 239 236 232 226 225 227 229 228 225 224 225 225 225 225 225 226 226 229 233 237 242 246 250 253 256 259 263
175 184 184 188 192 194 201 200 206 208 211 219 228 234 234 234 238 240 239 233 226 224 226 228 227 225 224 225 226 227 226 228 229 232 233 236 240 244 248 252 256 258 261 263
155 190 188 189 191 196 204 209 208 216 214 223 235 240 235 235 239 241 238 236 228 221 224 226 227 226 224 225 224 226 227 227 229 233 236 239 243 247 250 254 257 260 262 265
194 184 189 190 194 201 205 208 206 209 211 224 220 233 236 234 238 239 237 237 228 220 222 225 226 225 224 225 227 228 230 232 235 238 241 244 246 250 253 256 259 261 264 266
199 196 193 190 189 197 206 208 212 216 220 227 222 235 239 240 241 240 237 233 231 224 222 224 225 226 225 227 229 231 234 236 238 240 244 246 249 252 255 257 260 263 265 267
203 201 202 202 203 210 196 200 205 215 225 233 230 231 239 237 245 242 237 232 232 226 223 225 228 229 229 230 231 233 236 238 240 243 245 248 250 253 256 259 261 263 265 268
201 198 200 202 199 204 208 202 208 216 220 228 227 231 240 242 245 246 238 234 230 223 224 228 227 229 229 231 233 234 237 240 242 243 245 248 251 255 258 260 262 264 266 267
200 200 197 198 203 205 208 209 217 218 220 222 226 235 242 248 245 244 234 232 228 226 227 232 230 232 232 233 233 235 235 236 238 241 244 249 253 256 259 260 262 264 266 268
198 197 198 208 207 209 208 214 216 221 227 233 226 238 254 243 235 235 233 232 234 233 230 231 228 230 230 230 231 233 233 236 239 244 248 252 254 257 259 260 262 264 266 267
209 206 213 211 210 218 221 206 215 222 228 230 224 237 238 203 213 229 243 239 240 236 235 233 231 229 229 228 229 232 234 238 242 246 250 253 256 257 259 261 262 264 266 268
213 220 212 210 217 214 211 217 221 228 230 233 237 233 230 231 216 248 262 254 246 240 238 235 233 230 228 226 228 231 235 239 243 247 250 253 255 258 259 261 263 265 267 269
218 225 223 221 224 226 226 222 220 227 224 233 245 240 227 231 240 245 250 254 249 248 243 236 230 229 229 229 229 232 236 241 244 247 249 252 255 257 259 261 263 265 266 268
216 225 225 226 233 230 231 230 232 235 242 233 239 236 242 243 236 236 248 255 255 250 243 236 230 228 228 229 232 234 238 241 244 246 249 252 254 257 259 261 263 265 266 267
217 228 233 234 233 224 231 233 230 229 237 241 239 249 253 243 231 230 259 263 258 253 246 238 234 232 232 233 235 237 240 242 244 247 249 252 254 257 260 261 263 264 265 266
224 235 235 238 236 231 234 230 229 231 239 243 253 251 251 249 254 262 264 260 254 247 245 241 238 237 237 238 238 240 241 243 245 248 250 253 256 259 260 262 263 263 264 264
222 224 226 239 235 239 242 239 239 240 244 249 253 258 257 256 255 256 259 259 252 248 244 242 241 241 240 240 241 241 242 244 246 249 252 255 256 258 259 261 262 261 261 261
221 224 224 233 228 235 246 238 237 243 244 246 248 255 262 259 256 255 256 255 251 247 245 243 244 239 238 240 240 241 244 246 249 252 255 257 258 259 260 260 260 260 259 260
225 218 224 230 228 242 249 243 241 245 249 248 255 260 260 261 262 260 254 251 250 249 247 244 242 236 236 238 241 244 247 249 251 254 256 257 259 259 260 259 258 258 257 256
219 216 224 227 231 254 256 240 233 237 256 248 250 258 262 263 263 260 251 246 244 244 245 245 237 232 235 238 241 246 250 251 252 255 256 256 258 257 258 258 257 255 252 250
219 229 224 224 232 236 241 230 225 234 254 243 245 255 261 259 257 257 260 251 244 240 243 240 230 227 231 235 240 245 250 252 254 256 258 257 257 256 256 256 253 250 247 245
208 221 226 229 237 245 243 236 233 249 253 247 251 259 261 259 259 264 264 256 246 237 236 234 228 229 234 239 242 247 252 256 257 257 257 257 256 256 254 254 250 247 243 241
216 220 224 227 236 247 232 227 238 248 249 257 258 260 263 265 262 258 259 252 242 235 233 231 229 231 236 241 244 249 254 256 256 255 255 255 255 256 253 251 247 242 239 236
229 230 232 227 229 234 227 237 234 236 249 257 256 256 258 259 256 252 254 245 236 234 232 228 226 228 234 239 244 250 254 255 253 253 254 256 256 255 252 248 243 238 236 234
235 232 232 236 236 240 241 238 238 241 242 252 252 253 248 255 254 251 244 240 236 232 228 226 226 230 234 239 246 251 252 252 251 251 254 255 255 253 248 244 239 235 231 229
238 236 231 235 240 243 242 243 241 238 247 252 247 249 248 247 245 243 240 238 237 234 232 232 233 234 237 240 244 251 253 249 252 254 255 256 256 250 246 243 237 232 233 233
239 231 225 224 233 239 241 251 246 244 247 242 239 241 243 242 239 242 244 245 244 240 241 241 242 243 243 246 247 248 249 250 252 255 256 255 253 247 243 239 236 236 238 239